| time (UTC) | temp F | wind direction | speed MPH | gust MPH | rain 1hr in | rain 24hr in | rain mn in | humidity % | barometer mb |
| 20260506024505 | 76 | 193 | 2.0 | 8.0 | 0.00 | 0.00 | 0.00 | 84 | 1007.4 |
| 20260506024004 | 76 | 54 | 1.0 | 5.0 | 0.00 | 0.00 | 0.00 | 84 | 1007.4 |
| 20260506023504 | 76 | 209 | 2.0 | 5.0 | 0.00 | 0.00 | 0.00 | 84 | 1007.3 |
| 20260506023004 | 77 | 222 | 2.0 | 10.0 | 0.00 | 0.00 | 0.00 | 84 | 1007.2 |
| 20260506022504 | 77 | 159 | 2.0 | 10.0 | 0.00 | 0.00 | 0.00 | 84 | 1007.2 |
| 20260506022003 | 77 | 221 | 2.0 | 9.0 | 0.00 | 0.00 | 0.00 | 83 | 1007.1 |
| 20260506021504 | 77 | 173 | 2.0 | 9.0 | 0.00 | 0.00 | 0.00 | 83 | 1007.1 |
| 20260506021004 | 77 | 242 | 1.0 | 5.0 | 0.00 | 0.00 | 0.00 | 83 | 1007.1 |
| 20260506015003 | 77 | 198 | 1.0 | 5.0 | 0.00 | 0.00 | 0.00 | 83 | 1006.8 |
| 20260506014502 | 77 | 223 | 2.0 | 5.0 | 0.00 | 0.00 | 0.00 | 83 | 1006.8 |
| 20260506014004 | 77 | 196 | 2.0 | 4.0 | 0.00 | 0.00 | 0.00 | 83 | 1006.7 |
| 20260506013503 | 77 | 192 | 2.0 | 8.0 | 0.00 | 0.00 | 0.00 | 82 | 1006.7 |
| 20260506013003 | 77 | 179 | 2.0 | 8.0 | 0.00 | 0.00 | 0.00 | 82 | 1006.6 |
| 20260506012503 | 77 | 219 | 2.0 | 8.0 | 0.00 | 0.00 | 0.00 | 82 | 1006.6 |
| 20260506012003 | 77 | 194 | 2.0 | 9.0 | 0.00 | 0.00 | 0.00 | 82 | 1006.5 |
| 20260506011503 | 77 | 122 | 2.0 | 9.0 | 0.00 | 0.00 | 0.00 | 82 | 1006.5 |
| 20260506011003 | 77 | 170 | 2.0 | 9.0 | 0.00 | 0.00 | 0.00 | 82 | 1006.4 |
| 20260506010504 | 78 | 211 | 2.0 | 9.0 | 0.00 | 0.00 | 0.00 | 81 | 1006.4 |
| 20260506010003 | 78 | 155 | 1.0 | 9.0 | 0.00 | 0.00 | 0.00 | 81 | 1006.3 |
| 20260506005503 | 78 | 231 | 1.0 | 3.0 | 0.00 | 0.00 | 0.00 | 81 | 1006.2 |
| 20260506005003 | 78 | 229 | 2.0 | 5.0 | 0.00 | 0.00 | 0.00 | 81 | 1006.1 |
| 20260506004503 | 78 | 171 | 2.0 | 8.0 | 0.00 | 0.00 | 0.00 | 80 | 1006.1 |
| 20260506004003 | 78 | 190 | 2.0 | 9.0 | 0.00 | 0.00 | 0.00 | 80 | 1006.0 |
| 20260506002502 | 79 | 225 | 2.0 | 12.0 | 0.00 | 0.00 | 0.00 | 79 | 1006.0 |
| 20260506002003 | 79 | 171 | 2.0 | 6.0 | 0.00 | 0.00 | 0.00 | 79 | 1005.9 |
| 20260506001504 | 79 | 59 | 2.0 | 6.0 | 0.00 | 0.00 | 0.00 | 79 | 1005.9 |
| 20260506000503 | 79 | 146 | 4.0 | 11.0 | 0.00 | 0.00 | 0.00 | 78 | 1005.8 |
| 20260506000002 | 80 | 184 | 3.0 | 9.0 | 0.00 | 0.00 | 0.00 | 77 | 1005.7 |
| 20260505235503 | 80 | 176 | 2.0 | 7.0 | 0.00 | 0.00 | 0.00 | 77 | 1005.6 |
| 20260505235003 | 80 | 92 | 2.0 | 7.0 | 0.00 | 0.00 | 0.00 | 77 | 1005.6 |
| 20260505234502 | 80 | 217 | 3.0 | 14.0 | 0.00 | 0.00 | 0.00 | 77 | 1005.6 |
| 20260505233503 | 80 | 180 | 3.0 | 10.0 | 0.00 | 0.00 | 0.00 | 77 | 1005.6 |
| 20260505232502 | 81 | 144 | 3.0 | 10.0 | 0.00 | 0.00 | 0.00 | 76 | 1005.6 |
| 20260505232004 | 81 | 215 | 3.0 | 10.0 | 0.00 | 0.00 | 0.00 | 75 | 1005.6 |
| 20260505231502 | 82 | 118 | 3.0 | 9.0 | 0.00 | 0.00 | 0.00 | 74 | 1005.6 |
| 20260505231003 | 82 | 172 | 3.0 | 8.0 | 0.00 | 0.00 | 0.00 | 74 | 1005.5 |
| 20260505230503 | 82 | 169 | 3.0 | 8.0 | 0.00 | 0.00 | 0.00 | 74 | 1005.5 |
| 20260505230002 | 82 | 159 | 3.0 | 11.0 | 0.00 | 0.00 | 0.00 | 74 | 1005.6 |
| 20260505225002 | 82 | 205 | 4.0 | 14.0 | 0.00 | 0.00 | 0.00 | 74 | 1005.5 |
| 20260505224502 | 82 | 170 | 3.0 | 14.0 | 0.00 | 0.00 | 0.00 | 74 | 1005.3 |
| 20260505224002 | 82 | 201 | 3.0 | 9.0 | 0.00 | 0.00 | 0.00 | 73 | 1005.3 |
| 20260505223504 | 82 | 224 | 4.0 | 10.0 | 0.00 | 0.00 | 0.00 | 74 | 1005.5 |
| 20260505223002 | 83 | 164 | 4.0 | 10.0 | 0.00 | 0.00 | 0.00 | 73 | 1005.5 |
| 20260505222502 | 83 | 215 | 4.0 | 12.0 | 0.00 | 0.00 | 0.00 | 73 | 1005.6 |
| 20260505222002 | 82 | 171 | 4.0 | 11.0 | 0.00 | 0.00 | 0.00 | 73 | 1005.7 |
| 20260505221502 | 82 | 159 | 4.0 | 11.0 | 0.00 | 0.00 | 0.00 | 73 | 1005.6 |
| 20260505221003 | 83 | 180 | 3.0 | 10.0 | 0.00 | 0.00 | 0.00 | 73 | 1005.7 |
| 20260505220501 | 83 | 171 | 3.0 | 9.0 | 0.00 | 0.00 | 0.00 | 72 | 1005.8 |
| 20260505215502 | 83 | 213 | 3.0 | 11.0 | 0.00 | 0.00 | 0.00 | 72 | 1005.8 |
| 20260505215003 | 83 | 224 | 3.0 | 11.0 | 0.00 | 0.00 | 0.00 | 71 | 1005.8 |
| 20260505214001 | 83 | 209 | 3.0 | 11.0 | 0.00 | 0.00 | 0.00 | 71 | 1005.9 |
| 20260505213502 | 84 | 105 | 3.0 | 9.0 | 0.00 | 0.00 | 0.00 | 70 | 1006.0 |
| 20260505213002 | 84 | 119 | 4.0 | 12.0 | 0.00 | 0.00 | 0.00 | 70 | 1006.2 |
| 20260505212502 | 84 | 146 | 4.0 | 12.0 | 0.00 | 0.00 | 0.00 | 71 | 1006.2 |
| 20260505212001 | 84 | 229 | 4.0 | 17.0 | 0.00 | 0.00 | 0.00 | 72 | 1006.2 |
| 20260505211501 | 84 | 169 | 3.0 | 17.0 | 0.00 | 0.00 | 0.00 | 71 | 1006.3 |
| 20260505211003 | 84 | 144 | 2.0 | 7.0 | 0.00 | 0.00 | 0.00 | 73 | 1006.4 |
| 20260505210006 | 83 | 172 | 3.0 | 9.0 | 0.00 | 0.00 | 0.00 | 72 | 1006.7 |
| 20260505205503 | 83 | 217 | 3.0 | 9.0 | 0.00 | 0.00 | 0.00 | 72 | 1006.8 |
| 20260505205002 | 83 | 198 | 3.0 | 10.0 | 0.00 | 0.00 | 0.00 | 72 | 1006.9 |
| 20260505204502 | 83 | 119 | 3.0 | 10.0 | 0.00 | 0.00 | 0.00 | 71 | 1007.0 |
| 20260505204002 | 84 | 163 | 3.0 | 10.0 | 0.00 | 0.00 | 0.00 | 71 | 1007.1 |
| 20260505203502 | 83 | 201 | 3.0 | 9.0 | 0.00 | 0.00 | 0.00 | 73 | 1007.2 |
| 20260505203002 | 84 | 227 | 4.0 | 8.0 | 0.00 | 0.00 | 0.00 | 71 | 1007.2 |
| 20260505202003 | 84 | 221 | 4.0 | 15.0 | 0.00 | 0.00 | 0.00 | 71 | 1007.3 |
| 20260505201002 | 84 | 188 | 3.0 | 11.0 | 0.00 | 0.00 | 0.00 | 71 | 1007.4 |
| 20260505200501 | 84 | 119 | 3.0 | 11.0 | 0.00 | 0.00 | 0.00 | 71 | 1007.4 |
| 20260505195502 | 84 | 203 | 3.0 | 10.0 | 0.00 | 0.00 | 0.00 | 70 | 1007.6 |
| 20260505195004 | 84 | 187 | 3.0 | 11.0 | 0.00 | 0.00 | 0.00 | 71 | 1007.6 |
| 20260505194502 | 84 | 171 | 3.0 | 11.0 | 0.00 | 0.00 | 0.00 | 71 | 1007.7 |
| 20260505194002 | 84 | 86 | 3.0 | 9.0 | 0.00 | 0.00 | 0.00 | 71 | 1007.8 |
| 20260505193502 | 84 | 173 | 3.0 | 11.0 | 0.00 | 0.00 | 0.00 | 71 | 1007.7 |
| 20260505193004 | 84 | 128 | 2.0 | 8.0 | 0.00 | 0.00 | 0.00 | 73 | 1007.8 |
| 20260505192002 | 83 | 157 | 3.0 | 13.0 | 0.00 | 0.00 | 0.00 | 73 | 1007.9 |
| 20260505191002 | 83 | 227 | 2.0 | 11.0 | 0.00 | 0.00 | 0.00 | 73 | 1008.1 |
| 20260505190503 | 83 | 202 | 4.0 | 11.0 | 0.00 | 0.00 | 0.00 | 73 | 1008.0 |
| 20260505190003 | 84 | 201 | 4.0 | 12.0 | 0.00 | 0.00 | 0.00 | 71 | 1008.0 |
| 20260505184500 | 83 | 141 | 4.0 | 8.0 | 0.00 | 0.00 | 0.00 | 73 | 1008.1 |
| 20260505184002 | 83 | 220 | 4.0 | 10.0 | 0.00 | 0.00 | 0.00 | 72 | 1008.2 |
| 20260505183501 | 83 | 186 | 4.0 | 11.0 | 0.00 | 0.00 | 0.00 | 72 | 1008.2 |
| 20260505183001 | 83 | 215 | 5.0 | 14.0 | 0.00 | 0.00 | 0.00 | 73 | 1008.2 |
| 20260505182501 | 83 | 211 | 5.0 | 14.0 | 0.00 | 0.00 | 0.00 | 72 | 1008.2 |
| 20260505182001 | 83 | 185 | 4.0 | 12.0 | 0.00 | 0.00 | 0.00 | 72 | 1008.3 |
| 20260505181502 | 83 | 234 | 4.0 | 10.0 | 0.00 | 0.00 | 0.00 | 74 | 1008.3 |
| 20260505181001 | 82 | 199 | 3.0 | 10.0 | 0.00 | 0.00 | 0.00 | 75 | 1008.3 |
| 20260505180502 | 81 | 215 | 4.0 | 12.0 | 0.00 | 0.00 | 0.00 | 78 | 1008.4 |
| 20260505180000 | 80 | 264 | 4.0 | 15.0 | 0.00 | 0.00 | 0.00 | 78 | 1008.4 |
| 20260505175459 | 80 | 243 | 4.0 | 15.0 | 0.00 | 0.00 | 0.00 | 77 | 1008.5 |
| 20260505175000 | 80 | 255 | 4.0 | 11.0 | 0.00 | 0.00 | 0.00 | 77 | 1008.5 |
| 20260505174000 | 80 | 231 | 4.0 | 9.0 | 0.00 | 0.00 | 0.00 | 77 | 1008.6 |
| 20260505173500 | 80 | 171 | 5.0 | 11.0 | 0.00 | 0.00 | 0.00 | 77 | 1008.7 |
| 20260505173000 | 80 | 228 | 4.0 | 9.0 | 0.00 | 0.00 | 0.00 | 78 | 1008.7 |
| 20260505172500 | 80 | 231 | 3.0 | 8.0 | 0.00 | 0.00 | 0.00 | 78 | 1008.6 |
| 20260505172000 | 80 | 232 | 4.0 | 9.0 | 0.00 | 0.00 | 0.00 | 78 | 1008.6 |
| 20260505171000 | 80 | 137 | 5.0 | 10.0 | 0.00 | 0.00 | 0.00 | 77 | 1008.8 |
| 20260505170500 | 80 | 183 | 5.0 | 10.0 | 0.00 | 0.00 | 0.00 | 77 | 1008.7 |
| 20260505170001 | 80 | 190 | 4.0 | 11.0 | 0.00 | 0.00 | 0.00 | 78 | 1008.8 |
| 20260505165500 | 80 | 217 | 4.0 | 12.0 | 0.00 | 0.00 | 0.00 | 78 | 1008.8 |
| 20260505165000 | 79 | 209 | 5.0 | 12.0 | 0.00 | 0.00 | 0.00 | 78 | 1008.8 |
| 20260505164459 | 79 | 178 | 5.0 | 15.0 | 0.00 | 0.00 | 0.00 | 79 | 1008.8 |
| 20260505164000 | 79 | 161 | 4.0 | 15.0 | 0.00 | 0.00 | 0.00 | 78 | 1008.9 |
| 20260505163500 | 79 | 229 | 4.0 | 10.0 | 0.00 | 0.00 | 0.00 | 79 | 1009.0 |
| 20260505162500 | 79 | 186 | 4.0 | 9.0 | 0.00 | 0.00 | 0.00 | 78 | 1008.9 |
| 20260505162000 | 79 | 179 | 6.0 | 14.0 | 0.00 | 0.00 | 0.00 | 78 | 1008.8 |
| 20260505161001 | 79 | 225 | 5.0 | 21.0 | 0.00 | 0.00 | 0.00 | 79 | 1008.8 |
| 20260505153001 | 77 | 163 | 4.0 | 11.0 | 0.00 | 0.00 | 0.00 | 83 | 1008.9 |
| 20260505152000 | 76 | 202 | 3.0 | 10.0 | 0.00 | 0.00 | 0.00 | 85 | 1008.7 |
| 20260505151500 | 75 | 200 | 4.0 | 12.0 | 0.00 | 0.00 | 0.00 | 85 | 1008.6 |
| 20260505140459 | 73 | 177 | 4.0 | 10.0 | 0.00 | 0.00 | 0.00 | 88 | 1008.4 |
| 20260505124959 | 71 | 198 | 2.0 | 9.0 | 0.00 | 0.00 | 0.00 | 92 | 1008.2 |
| 20260505124459 | 71 | 185 | 3.0 | 10.0 | 0.00 | 0.00 | 0.00 | 92 | 1008.1 |
| 20260505123959 | 71 | 196 | 4.0 | 10.0 | 0.00 | 0.00 | 0.00 | 92 | 1008.1 |
| 20260505123459 | 71 | 193 | 4.0 | 8.0 | 0.00 | 0.00 | 0.00 | 92 | 1008.1 |
| 20260505123000 | 71 | 227 | 3.0 | 8.0 | 0.00 | 0.00 | 0.00 | 92 | 1008.1 |
| 20260505122459 | 71 | 206 | 2.0 | 8.0 | 0.00 | 0.00 | 0.00 | 92 | 1008.3 |
| 20260505121958 | 71 | 176 | 2.0 | 7.0 | 0.00 | 0.00 | 0.00 | 92 | 1008.2 |
| 20260505121459 | 70 | 146 | 3.0 | 11.0 | 0.00 | 0.00 | 0.00 | 92 | 1008.0 |
| 20260505120958 | 70 | 231 | 3.0 | 11.0 | 0.00 | 0.00 | 0.00 | 92 | 1007.8 |
| 20260505120459 | 70 | 209 | 2.0 | 5.0 | 0.00 | 0.00 | 0.00 | 92 | 1007.8 |
| 20260505115958 | 70 | 188 | 2.0 | 5.0 | 0.00 | 0.00 | 0.00 | 92 | 1007.8 |
| 20260505114959 | 70 | 191 | 2.0 | 5.0 | 0.00 | 0.00 | 0.00 | 92 | 1007.8 |
| 20260505114458 | 70 | 153 | 2.0 | 8.0 | 0.00 | 0.00 | 0.00 | 92 | 1007.8 |
| 20260505114001 | 70 | 201 | 2.0 | 7.0 | 0.00 | 0.00 | 0.00 | 92 | 1007.6 |
| 20260505113459 | 69 | 205 | 2.0 | 6.0 | 0.00 | 0.00 | 0.00 | 92 | 1007.7 |
| 20260505112459 | 69 | 210 | 2.0 | 5.0 | 0.00 | 0.00 | 0.00 | 92 | 1007.6 |
| 20260505112000 | 69 | 201 | 2.0 | 8.0 | 0.00 | 0.00 | 0.00 | 92 | 1007.7 |
| 20260505111459 | 69 | 191 | 2.0 | 4.0 | 0.00 | 0.00 | 0.00 | 92 | 1007.6 |
| 20260505110959 | 69 | 203 | 3.0 | 6.0 | 0.00 | 0.00 | 0.00 | 92 | 1007.7 |
| 20260505110459 | 69 | 181 | 3.0 | 7.0 | 0.00 | 0.00 | 0.00 | 92 | 1007.7 |
| 20260505101458 | 69 | 200 | 2.0 | 5.0 | 0.00 | 0.00 | 0.00 | 92 | 1007.7 |
| 20260505100958 | 69 | 211 | 2.0 | 5.0 | 0.00 | 0.00 | 0.00 | 92 | 1008.0 |
| 20260505100458 | 69 | 217 | 2.0 | 5.0 | 0.00 | 0.00 | 0.00 | 92 | 1008.0 |
| 20260505100001 | 69 | 194 | 2.0 | 9.0 | 0.00 | 0.00 | 0.00 | 92 | 1007.9 |
| 20260505095458 | 69 | 177 | 2.0 | 9.0 | 0.00 | 0.00 | 0.00 | 92 | 1007.8 |
| 20260505094959 | 69 | 195 | 2.0 | 7.0 | 0.00 | 0.00 | 0.00 | 91 | 1007.7 |
| 20260505094459 | 69 | 252 | 2.0 | 7.0 | 0.00 | 0.00 | 0.00 | 91 | 1007.7 |
| 20260505093959 | 68 | 194 | 2.0 | 6.0 | 0.00 | 0.00 | 0.00 | 91 | 1007.7 |
| 20260505093500 | 68 | 225 | 2.0 | 6.0 | 0.00 | 0.00 | 0.00 | 91 | 1007.8 |
| 20260505092959 | 68 | 211 | 2.0 | 6.0 | 0.00 | 0.00 | 0.00 | 91 | 1008.0 |
| 20260505092458 | 68 | 205 | 2.0 | 5.0 | 0.00 | 0.00 | 0.00 | 91 | 1008.2 |
| 20260505092000 | 68 | 215 | 1.0 | 4.0 | 0.00 | 0.00 | 0.00 | 91 | 1008.1 |
| 20260505091459 | 68 | 210 | 2.0 | 5.0 | 0.00 | 0.00 | 0.00 | 91 | 1008.1 |
| 20260505090958 | 68 | 181 | 2.0 | 6.0 | 0.00 | 0.00 | 0.00 | 90 | 1008.2 |
| 20260505090459 | 68 | 210 | 2.0 | 6.0 | 0.00 | 0.00 | 0.00 | 90 | 1008.0 |
| 20260505085958 | 68 | 217 | 2.0 | 5.0 | 0.00 | 0.00 | 0.00 | 90 | 1008.0 |
| 20260505085459 | 68 | 226 | 2.0 | 5.0 | 0.00 | 0.00 | 0.00 | 90 | 1008.2 |
| 20260505084458 | 68 | 233 | 1.0 | 5.0 | 0.00 | 0.00 | 0.00 | 89 | 1008.2 |
| 20260505083958 | 68 | 192 | 1.0 | 5.0 | 0.00 | 0.00 | 0.00 | 89 | 1008.3 |
| 20260505083457 | 68 | 204 | 1.0 | 4.0 | 0.00 | 0.00 | 0.00 | 89 | 1008.3 |
| 20260505082959 | 68 | 207 | 2.0 | 5.0 | 0.00 | 0.00 | 0.00 | 89 | 1008.3 |
| 20260505082458 | 68 | 218 | 2.0 | 5.0 | 0.00 | 0.00 | 0.00 | 89 | 1008.5 |
| 20260505081958 | 68 | 211 | 2.0 | 5.0 | 0.00 | 0.00 | 0.00 | 88 | 1008.5 |
| 20260505080958 | 68 | 208 | 2.0 | 5.0 | 0.00 | 0.00 | 0.00 | 88 | 1008.6 |
| 20260505080458 | 68 | 198 | 1.0 | 5.0 | 0.00 | 0.00 | 0.00 | 88 | 1008.8 |
| 20260505075458 | 68 | 207 | 1.0 | 3.0 | 0.00 | 0.00 | 0.00 | 88 | 1008.9 |
| 20260505074459 | 68 | 209 | 1.0 | 5.0 | 0.00 | 0.00 | 0.00 | 88 | 1009.1 |
| 20260505074000 | 68 | 214 | 2.0 | 5.0 | 0.00 | 0.00 | 0.00 | 87 | 1009.1 |
| 20260505073457 | 68 | 223 | 2.0 | 4.0 | 0.00 | 0.00 | 0.00 | 87 | 1009.0 |
| 20260505072956 | 68 | 215 | 2.0 | 5.0 | 0.00 | 0.00 | 0.00 | 87 | 1008.9 |
| 20260505071456 | 69 | 209 | 2.0 | 7.0 | 0.00 | 0.00 | 0.00 | 87 | 1009.2 |
| 20260505070957 | 69 | 242 | 2.0 | 4.0 | 0.00 | 0.00 | 0.00 | 87 | 1009.1 |
| 20260505070458 | 69 | 202 | 2.0 | 7.0 | 0.00 | 0.00 | 0.00 | 86 | 1009.1 |
| 20260505065957 | 69 | 204 | 2.0 | 7.0 | 0.00 | 0.00 | 0.00 | 86 | 1009.1 |
| 20260505065457 | 69 | 228 | 2.0 | 5.0 | 0.00 | 0.00 | 0.00 | 86 | 1009.0 |
| 20260505064958 | 69 | 234 | 3.0 | 8.0 | 0.00 | 0.00 | 0.00 | 86 | 1008.9 |
| 20260505064457 | 69 | 199 | 3.0 | 8.0 | 0.00 | 0.00 | 0.00 | 86 | 1009.1 |
| 20260505063957 | 69 | 204 | 2.0 | 9.0 | 0.00 | 0.00 | 0.00 | 86 | 1009.1 |
| 20260505063456 | 69 | 181 | 3.0 | 12.0 | 0.00 | 0.00 | 0.00 | 86 | 1009.2 |
| 20260505062957 | 69 | 200 | 3.0 | 12.0 | 0.00 | 0.00 | 0.00 | 86 | 1009.3 |
| 20260505062457 | 69 | 162 | 3.0 | 7.0 | 0.00 | 0.00 | 0.00 | 86 | 1009.4 |
| 20260505061956 | 69 | 186 | 3.0 | 9.0 | 0.00 | 0.00 | 0.00 | 86 | 1009.4 |
| 20260505061456 | 69 | 194 | 3.0 | 9.0 | 0.00 | 0.00 | 0.00 | 86 | 1009.5 |
| 20260505060957 | 68 | 163 | 2.0 | 7.0 | 0.00 | 0.00 | 0.00 | 85 | 1009.5 |
| 20260505060456 | 68 | 186 | 2.0 | 4.0 | 0.00 | 0.00 | 0.00 | 85 | 1009.6 |
| 20260505060003 | 69 | 216 | 2.0 | 4.0 | 0.00 | 0.00 | 0.00 | 85 | 1009.5 |
| 20260505055504 | 69 | 184 | 1.0 | 4.0 | 0.00 | 0.00 | 0.00 | 85 | 1009.4 |
| 20260505055004 | 69 | 186 | 2.0 | 4.0 | 0.00 | 0.00 | 0.00 | 85 | 1009.5 |
| 20260505054504 | 69 | 200 | 2.0 | 6.0 | 0.00 | 0.00 | 0.00 | 85 | 1009.7 |
| 20260505054004 | 69 | 211 | 2.0 | 8.0 | 0.00 | 0.00 | 0.00 | 84 | 1009.9 |
| 20260505053504 | 69 | 202 | 2.0 | 6.0 | 0.00 | 0.00 | 0.00 | 84 | 1009.9 |
| 20260505053004 | 69 | 195 | 2.0 | 6.0 | 0.00 | 0.00 | 0.00 | 84 | 1009.9 |
| 20260505052503 | 69 | 175 | 2.0 | 6.0 | 0.00 | 0.00 | 0.00 | 84 | 1009.8 |
| 20260505052004 | 69 | 208 | 2.0 | 7.0 | 0.00 | 0.00 | 0.00 | 84 | 1009.9 |
| 20260505051503 | 69 | 189 | 2.0 | 7.0 | 0.00 | 0.00 | 0.00 | 84 | 1009.9 |
| 20260505051005 | 69 | 180 | 1.0 | 5.0 | 0.00 | 0.00 | 0.00 | 83 | 1010.0 |
| 20260505050504 | 69 | 207 | 1.0 | 7.0 | 0.00 | 0.00 | 0.00 | 83 | 1010.0 |
| 20260505041505 | 70 | 190 | 1.0 | 6.0 | 0.00 | 0.00 | 0.00 | 81 | 1010.4 |
| 20260505041005 | 70 | 254 | 1.0 | 4.0 | 0.00 | 0.00 | 0.00 | 81 | 1010.4 |
| 20260505040005 | 70 | 167 | 2.0 | 7.0 | 0.00 | 0.00 | 0.00 | 80 | 1010.2 |
| 20260505035004 | 71 | 213 | 2.0 | 8.0 | 0.00 | 0.00 | 0.00 | 80 | 1010.3 |
| 20260505034504 | 71 | 213 | 2.0 | 8.0 | 0.00 | 0.00 | 0.00 | 79 | 1010.4 |
| 20260505034003 | 71 | 242 | 2.0 | 8.0 | 0.00 | 0.00 | 0.00 | 79 | 1010.4 |
| 20260505033504 | 71 | 202 | 2.0 | 8.0 | 0.00 | 0.00 | 0.00 | 78 | 1010.4 |
| 20260505033003 | 71 | 148 | 2.0 | 8.0 | 0.00 | 0.00 | 0.00 | 78 | 1010.3 |
| 20260505032503 | 72 | 186 | 2.0 | 9.0 | 0.00 | 0.00 | 0.00 | 78 | 1010.3 |
| 20260505032004 | 72 | 112 | 2.0 | 7.0 | 0.00 | 0.00 | 0.00 | 78 | 1010.4 |
| 20260505031504 | 72 | 190 | 3.0 | 6.0 | 0.00 | 0.00 | 0.00 | 77 | 1010.4 |
| 20260505031004 | 72 | 194 | 3.0 | 11.0 | 0.00 | 0.00 | 0.00 | 77 | 1010.3 |
| 20260505030004 | 72 | 171 | 2.0 | 7.0 | 0.00 | 0.00 | 0.00 | 77 | 1010.2 |
| 20260505025504 | 72 | 192 | 1.0 | 4.0 | 0.00 | 0.00 | 0.00 | 77 | 1010.2 |
| 20260505025004 | 72 | 196 | 2.0 | 9.0 | 0.00 | 0.00 | 0.00 | 77 | 1010.2 |